Flag for Austria Weather past 2 weeks in Knittelfeld, Styria, Austria

Now
61 °F

Partly sunny.


Feels Like: 61 °F
Forecast: 59 / 73 °F
Wind: 1 mph from North

Location: Zeltweg

Current Time: Jul 30, 2014 at 8:26:29 AM

Latest Report: Jul 30, 2014 at 7:50 AM


Visibility: 9 mi

Pressure: 29.80 "Hg

Humidity: 88%

Dew point: 57 °F

Location of KnittelfeldLocation

Historic Weather in Knittelfeld — Graph

°F

Knittelfeld temperature yesterday

Maximum temperature yesterday: 75 °F (at 12:50 PM)
Minimum temperature yesterday: 61 °F (at 5:50 AM)
Average temperature yesterday: 70 °F

Past Weeks' High & Low Weather Summary

 TemperatureHumidityPressure
High86 °F (Jul 20, 12:50 PM)100% (Jul 16, 4:50 AM)30.24 "Hg (Jul 16, 4:50 AM)
Low46 °F (Jul 24, 5:50 AM)32% (Jul 18, 6:50 PM)29.77 "Hg (Jul 29, 4:20 PM)
Average67 °F72%30.00 "Hg
* Reported Jul 15 6:50 AM — Jul 30 6:50 AM, Knittelfeld, Weather by CustomWeather, © 2014

Note: Actual official high and low records may vary slightly from our data, if they occured in-between our weather recording intervals... More about our weather records

Advertising

Knittelfeld weather history for previous 24 hours

 ConditionsComfort  
Time TempWeatherWind HumidityBarometerVisibility
6:50 AM
Jul 30
59 °FPartly sunny.2 mph94%29.80 "Hg9 mi
5:50 AM57 °FPartly cloudy.2 mph94%29.80 "Hg9 mi
10:50 PM
Jul 29
61 °FPassing clouds.5 mph94%29.80 "Hg12 mi
9:50 PM64 °FPartly cloudy.5 mph78%29.80 "Hg12 mi
8:50 PM68 °FPartly sunny.8 mph69%29.77 "Hg12 mi
7:50 PM72 °FPartly sunny.5 mph61%29.77 "Hg16 mi
6:50 PM72 °FPartly sunny.3 mph61%29.77 "Hg16 mi
5:50 PM72 °FBroken clouds.6 mph61%29.77 "Hg16 mi
4:50 PM73 °FBroken clouds.13 mph53%29.77 "Hg16 mi
4:20 PM75 °FBroken clouds.10 mph54%29.77 "Hg16 mi
3:50 PM75 °FPartly sunny.10 mph50%29.80 "Hg16 mi
3:20 PM75 °FPartly sunny.10 mph50%29.80 "Hg16 mi
2:50 PM75 °FBroken clouds.12 mph47%29.80 "Hg16 mi
2:20 PM73 °FBroken clouds.10 mph53%29.80 "Hg16 mi
1:50 PM73 °FBroken clouds.10 mph57%29.80 "Hg16 mi
1:20 PM73 °FPartly sunny.9 mph57%29.80 "Hg16 mi
12:50 PM75 °FPartly sunny.6 mph57%29.80 "Hg16 mi
12:20 PM73 °FPartly sunny.6 mph61%29.80 "Hg16 mi
11:50 AM73 °FPartly sunny.2 mph65%29.80 "Hg16 mi
11:20 AM72 °FPartly sunny.6 mph65%29.83 "Hg16 mi
10:50 AM70 °FPartly sunny.6 mph73%29.83 "Hg16 mi
10:20 AM72 °FScattered clouds.3 mph65%29.83 "Hg12 mi
9:50 AM70 °FPassing clouds.2 mph73%29.83 "Hg12 mi
9:20 AM68 °FPassing clouds.2 mph78%29.83 "Hg7 mi
8:50 AM64 °FScattered clouds.2 mph88%29.83 "Hg6 mi
8:20 AM64 °FBroken clouds.2 mph88%29.83 "Hg6 mi
Weather by CustomWeather, © 2014

See weather overviewHow to use our weather pages